RYR2CF EDDH-EPWA

Flight info

Callsign RYR2CF
Flight time 1h 11m
Altitude 35000
Route RAMAR6G/33 RAMAR DCT PABMI DCT RADEL DCT ALUKA DCT DENKO P851 BIMPA
Aircraft B738/M-SDE2E3FGHIRWXY/LB1

Departure

Time 2026-04-26 18:42
Airport Hamburg Helmut Schmidt Airport (EDDH)

Arrival

Time 2026-04-26 19:53
Airport Warsaw Chopin Airport (EPWA)
Time Latitude Longitude Altitude Speed Heading
2026-04-26 18:20 53.63112 10.00376 47 ft 0 kts 87°
2026-04-26 18:34 53.63111 10.00345 44 ft 4 kts 87°
2026-04-26 18:35 53.63110 10.00309 43 ft 4 kts 95°
2026-04-26 18:35 53.63117 10.00271 44 ft 4 kts 137°
2026-04-26 18:35 53.63132 10.00257 42 ft 0 kts 176°
2026-04-26 18:39 53.63105 10.00227 46 ft 10 kts 217°
2026-04-26 18:39 53.63018 10.00130 46 ft 18 kts 213°
2026-04-26 18:40 53.62932 10.00023 47 ft 13 kts 232°
2026-04-26 18:40 53.62913 9.99970 47 ft 4 kts 241°
2026-04-26 18:40 53.62898 9.99922 47 ft 6 kts 242°
2026-04-26 18:40 53.62878 9.99853 45 ft 7 kts 244°
2026-04-26 18:41 53.62869 9.99759 44 ft 9 kts 297°
2026-04-26 18:41 53.62897 9.99726 44 ft 0 kts 323°
2026-04-26 18:41 53.62899 9.99724 44 ft 3 kts 323°
2026-04-26 18:41 53.63015 9.99618 44 ft 47 kts 333°
2026-04-26 18:42 53.63506 9.99193 46 ft 109 kts 333°
2026-04-26 18:42 53.64334 9.98481 64 ft 154 kts 332°
2026-04-26 18:42 53.65322 9.97673 516 ft 162 kts 334°
2026-04-26 18:42 53.66344 9.96905 1161 ft 161 kts 334°
2026-04-26 18:43 53.67344 9.96062 1801 ft 161 kts 329°
2026-04-26 18:43 53.68411 9.95079 2061 ft 188 kts 328°
2026-04-26 18:43 53.69712 9.94346 2343 ft 209 kts 359°
2026-04-26 18:43 53.71204 9.94481 2803 ft 219 kts
2026-04-26 18:44 53.72746 9.94802 3249 ft 231 kts 20°
2026-04-26 18:44 53.74048 9.96428 3796 ft 244 kts 52°
2026-04-26 18:44 53.74695 9.99186 4128 ft 264 kts 87°
2026-04-26 18:44 53.74407 10.02268 4780 ft 270 kts 107°
2026-04-26 18:45 53.73822 10.05334 5430 ft 277 kts 109°
2026-04-26 18:45 53.73187 10.08426 6155 ft 281 kts 109°
2026-04-26 18:45 53.72534 10.11576 6856 ft 287 kts 108°
2026-04-26 18:45 53.71884 10.14731 7537 ft 290 kts 108°
2026-04-26 18:46 53.71223 10.17967 8242 ft 293 kts 107°
2026-04-26 18:46 53.70558 10.21243 8936 ft 297 kts 107°
2026-04-26 18:46 53.69891 10.24551 9638 ft 301 kts 106°
2026-04-26 18:46 53.69213 10.27919 10226 ft 305 kts 106°
2026-04-26 18:47 53.68530 10.31323 10332 ft 308 kts 106°
2026-04-26 18:47 53.67821 10.34859 10492 ft 328 kts 106°
2026-04-26 18:47 53.67070 10.38617 10678 ft 348 kts 106°
2026-04-26 18:47 53.66277 10.42561 11135 ft 358 kts 106°
2026-04-26 18:48 53.65472 10.46554 11733 ft 362 kts 107°
2026-04-26 18:48 53.64656 10.50594 12395 ft 366 kts 107°
2026-04-26 18:48 53.63829 10.54677 13055 ft 370 kts 107°
2026-04-26 18:48 53.62993 10.58798 13724 ft 374 kts 107°
2026-04-26 18:49 53.62147 10.62965 14373 ft 378 kts 107°
2026-04-26 18:49 53.61283 10.67213 15119 ft 385 kts 107°
2026-04-26 18:49 53.60412 10.71488 16045 ft 387 kts 107°
2026-04-26 18:49 53.59531 10.75801 16884 ft 392 kts 107°
2026-04-26 18:50 53.58636 10.80171 17640 ft 398 kts 108°
2026-04-26 18:50 53.57726 10.84608 18387 ft 403 kts 108°
2026-04-26 18:50 53.56804 10.89092 19063 ft 408 kts 108°
2026-04-26 18:50 53.55881 10.93573 19710 ft 412 kts 108°
2026-04-26 18:51 53.54943 10.98114 20273 ft 418 kts 108°
2026-04-26 18:51 53.53980 11.02765 20869 ft 423 kts 108°
2026-04-26 18:51 53.53009 11.07447 21497 ft 426 kts 108°
2026-04-26 18:51 53.52026 11.12172 22093 ft 430 kts 108°
2026-04-26 18:52 53.51035 11.16926 22652 ft 434 kts 108°
2026-04-26 18:52 53.50029 11.21742 23193 ft 439 kts 108°
2026-04-26 18:52 53.49003 11.26642 23274 ft 452 kts 108°
2026-04-26 18:52 53.47948 11.31673 23297 ft 465 kts 108°
2026-04-26 18:53 53.46855 11.36869 23295 ft 477 kts 108°
2026-04-26 18:53 53.45734 11.42182 23307 ft 488 kts 108°
2026-04-26 18:53 53.44599 11.47546 23290 ft 498 kts 108°
2026-04-26 18:53 53.43427 11.53068 23270 ft 504 kts 108°
2026-04-26 18:54 53.42248 11.58612 23268 ft 502 kts 108°
2026-04-26 18:54 53.41071 11.64127 23276 ft 501 kts 108°
2026-04-26 18:54 53.39785 11.69555 23439 ft 504 kts 114°
2026-04-26 18:54 53.38215 11.74752 24297 ft 494 kts 117°
2026-04-26 18:55 53.36617 11.79783 25185 ft 484 kts 117°
2026-04-26 18:55 53.35041 11.84693 26072 ft 474 kts 117°
2026-04-26 18:55 53.33513 11.89475 26956 ft 465 kts 117°
2026-04-26 18:55 53.31993 11.94270 27616 ft 461 kts 117°
2026-04-26 18:56 53.30503 11.99006 28182 ft 460 kts 117°
2026-04-26 18:56 53.29012 12.03765 28471 ft 466 kts 117°
2026-04-26 18:56 53.25970 12.13483 28725 ft 481 kts 117°
2026-04-26 18:57 53.24411 12.18450 29071 ft 484 kts 117°
2026-04-26 18:57 53.23882 12.20131 29192 ft 484 kts 117°
2026-04-26 18:57 53.21268 12.28424 29801 ft 486 kts 117°
2026-04-26 18:57 53.19690 12.33415 30160 ft 487 kts 117°
2026-04-26 18:58 53.18103 12.38421 30557 ft 487 kts 117°
2026-04-26 18:58 53.16519 12.43408 30931 ft 486 kts 117°
2026-04-26 18:58 53.14938 12.48378 31324 ft 485 kts 117°
2026-04-26 18:58 53.13360 12.53325 31672 ft 484 kts 117°
2026-04-26 18:59 53.11781 12.58268 31996 ft 484 kts 118°
2026-04-26 18:59 53.10198 12.63213 32333 ft 483 kts 118°
2026-04-26 18:59 53.08616 12.68144 32686 ft 482 kts 118°
2026-04-26 18:59 53.07035 12.73061 33017 ft 482 kts 118°
2026-04-26 19:00 53.05455 12.77974 33323 ft 482 kts 118°
2026-04-26 19:00 53.03874 12.82882 33668 ft 481 kts 118°
2026-04-26 19:00 53.02290 12.87775 33964 ft 482 kts 118°
2026-04-26 19:00 53.00699 12.92682 34275 ft 481 kts 118°
2026-04-26 19:01 52.99112 12.97571 34583 ft 480 kts 118°
2026-04-26 19:01 52.97552 13.02368 34907 ft 477 kts 118°
2026-04-26 19:01 52.96060 13.07355 35183 ft 476 kts 111°
2026-04-26 19:01 52.95036 13.12572 35309 ft 477 kts 102°
2026-04-26 19:02 52.94276 13.23484 35312 ft 475 kts 90°
2026-04-26 19:02 52.94055 13.30714 35307 ft 473 kts 90°
2026-04-26 19:03 52.93553 13.45179 35303 ft 471 kts 92°
2026-04-26 19:03 52.92901 13.55988 35305 ft 471 kts 94°
2026-04-26 19:04 52.92167 13.66774 35308 ft 470 kts 94°
2026-04-26 19:04 52.91470 13.77548 35314 ft 471 kts 94°
2026-04-26 19:05 52.90432 13.93797 35322 ft 477 kts 94°
2026-04-26 19:06 52.89834 14.02964 35319 ft 485 kts 94°
2026-04-26 19:06 52.89089 14.14164 35317 ft 494 kts 94°
2026-04-26 19:07 52.88318 14.25555 35324 ft 502 kts 94°
2026-04-26 19:07 52.87524 14.37114 35318 ft 508 kts 94°
2026-04-26 19:08 52.86711 14.48769 35310 ft 511 kts 94°
2026-04-26 19:08 52.85884 14.60477 35307 ft 512 kts 94°
2026-04-26 19:09 52.85051 14.72096 35310 ft 511 kts 94°
2026-04-26 19:09 52.84201 14.83790 35308 ft 511 kts 94°
2026-04-26 19:10 52.83344 14.95412 35313 ft 509 kts 95°
2026-04-26 19:10 52.82477 15.07026 35310 ft 509 kts 95°
2026-04-26 19:11 52.81600 15.18619 35310 ft 508 kts 95°
2026-04-26 19:11 52.80711 15.30209 35323 ft 507 kts 95°
2026-04-26 19:12 52.79813 15.41778 35312 ft 508 kts 95°
2026-04-26 19:12 52.78907 15.53299 35312 ft 508 kts 95°
2026-04-26 19:13 52.77984 15.64874 35314 ft 508 kts 95°
2026-04-26 19:13 52.77051 15.76438 35310 ft 508 kts 95°
2026-04-26 19:14 52.76106 15.88001 35308 ft 508 kts 95°
2026-04-26 19:14 52.75149 15.99578 35312 ft 509 kts 95°
2026-04-26 19:15 52.74180 16.11155 35310 ft 509 kts 95°
2026-04-26 19:15 52.73204 16.22675 35307 ft 510 kts 95°
2026-04-26 19:16 52.72211 16.34255 35319 ft 510 kts 95°
2026-04-26 19:16 52.71204 16.45863 35315 ft 511 kts 95°
2026-04-26 19:17 52.70185 16.57473 35218 ft 514 kts 96°
2026-04-26 19:17 52.69668 16.63316 34950 ft 516 kts 96°
2026-04-26 19:17 52.69149 16.69151 34712 ft 514 kts 96°
2026-04-26 19:17 52.68626 16.74984 34478 ft 514 kts 96°
2026-04-26 19:18 52.68101 16.80808 34258 ft 515 kts 96°
2026-04-26 19:18 52.67595 16.86669 33976 ft 516 kts 95°
2026-04-26 19:18 52.67122 16.92537 33710 ft 517 kts 95°
2026-04-26 19:18 52.66662 16.98440 33444 ft 518 kts 94°
2026-04-26 19:19 52.66204 17.04323 33318 ft 517 kts 95°
2026-04-26 19:19 52.65270 17.16103 33310 ft 519 kts 95°
2026-04-26 19:20 52.64308 17.27893 33311 ft 520 kts 95°
2026-04-26 19:20 52.63325 17.39704 33297 ft 521 kts 95°
2026-04-26 19:21 52.62326 17.51555 33299 ft 522 kts 95°
2026-04-26 19:21 52.61323 17.63311 33298 ft 522 kts 95°
2026-04-26 19:22 52.60301 17.75153 33296 ft 522 kts 95°
2026-04-26 19:22 52.59270 17.86973 33298 ft 523 kts 95°
2026-04-26 19:23 52.58225 17.98804 33302 ft 523 kts 95°
2026-04-26 19:23 52.57168 18.10632 33292 ft 523 kts 95°
2026-04-26 19:23 52.56638 18.16489 33225 ft 508 kts 95°
2026-04-26 19:24 52.56118 18.22106 33073 ft 487 kts 96°
2026-04-26 19:24 52.55339 18.27414 32950 ft 472 kts 107°
2026-04-26 19:24 52.53139 18.37268 32245 ft 451 kts 108°
2026-04-26 19:25 52.52022 18.42085 31590 ft 450 kts 108°
2026-04-26 19:25 52.51289 18.45259 31161 ft 449 kts 108°
2026-04-26 19:25 52.49828 18.51653 30408 ft 445 kts 108°
2026-04-26 19:25 52.48758 18.56387 29812 ft 440 kts 108°
2026-04-26 19:26 52.47705 18.61073 29215 ft 436 kts 108°
2026-04-26 19:26 52.46665 18.65713 28614 ft 432 kts 107°
2026-04-26 19:26 52.45632 18.70321 28004 ft 428 kts 107°
2026-04-26 19:26 52.44607 18.74889 27423 ft 425 kts 107°
2026-04-26 19:27 52.43588 18.79421 26818 ft 423 kts 107°
2026-04-26 19:27 52.42572 18.83930 26260 ft 419 kts 107°
2026-04-26 19:27 52.41565 18.88382 25740 ft 416 kts 107°
2026-04-26 19:27 52.40562 18.92810 25214 ft 412 kts 107°
2026-04-26 19:28 52.39566 18.97197 24767 ft 412 kts 107°
2026-04-26 19:28 52.38566 19.01595 24371 ft 412 kts 107°
2026-04-26 19:28 52.37566 19.05987 24000 ft 411 kts 107°
2026-04-26 19:28 52.36579 19.10308 23601 ft 410 kts 107°
2026-04-26 19:29 52.35582 19.14662 23206 ft 407 kts 107°
2026-04-26 19:29 52.34587 19.18993 22858 ft 405 kts 106°
2026-04-26 19:29 52.33597 19.23299 22479 ft 403 kts 105°
2026-04-26 19:29 52.32610 19.27581 22110 ft 401 kts 105°
2026-04-26 19:30 52.31628 19.31833 21754 ft 399 kts 105°
2026-04-26 19:30 52.30650 19.36065 21402 ft 396 kts 105°
2026-04-26 19:30 52.29674 19.40274 21050 ft 394 kts 105°
2026-04-26 19:30 52.29032 19.43041 20823 ft 393 kts 105°
2026-04-26 19:31 52.27750 19.48554 20365 ft 391 kts 105°
2026-04-26 19:31 52.26787 19.52684 20025 ft 389 kts 105°
2026-04-26 19:31 52.25824 19.56808 19661 ft 388 kts 105°
2026-04-26 19:31 52.24863 19.60918 19316 ft 386 kts 105°
2026-04-26 19:32 52.23905 19.65006 18965 ft 385 kts 105°
2026-04-26 19:32 52.22949 19.69075 18625 ft 384 kts 105°
2026-04-26 19:32 52.21994 19.73133 18220 ft 380 kts 105°
2026-04-26 19:32 52.21049 19.77137 17857 ft 377 kts 105°
2026-04-26 19:33 52.20110 19.81112 17518 ft 374 kts 105°
2026-04-26 19:33 52.19175 19.85062 17179 ft 372 kts 105°
2026-04-26 19:33 52.18247 19.88978 16851 ft 369 kts 105°
2026-04-26 19:33 52.17318 19.92889 16517 ft 367 kts 105°
2026-04-26 19:34 52.16412 19.96697 16196 ft 365 kts 105°
2026-04-26 19:34 52.15497 20.00538 15874 ft 363 kts 105°
2026-04-26 19:34 52.14584 20.04362 15552 ft 361 kts 105°
2026-04-26 19:34 52.13678 20.08151 15235 ft 359 kts 105°
2026-04-26 19:35 52.12773 20.11934 14899 ft 358 kts 105°
2026-04-26 19:35 52.11870 20.15697 14579 ft 356 kts 105°
2026-04-26 19:35 52.10972 20.19431 14260 ft 354 kts 105°
2026-04-26 19:35 52.10072 20.23168 13921 ft 353 kts 105°
2026-04-26 19:36 52.09178 20.26874 13560 ft 351 kts 106°
2026-04-26 19:36 52.08589 20.29313 13329 ft 349 kts 106°
2026-04-26 19:36 52.07403 20.34215 12899 ft 345 kts 106°
2026-04-26 19:36 52.06527 20.37826 12586 ft 342 kts 107°
2026-04-26 19:37 52.05654 20.41418 12278 ft 340 kts 107°
2026-04-26 19:37 52.04791 20.44966 11973 ft 337 kts 107°
2026-04-26 19:37 52.03942 20.48449 11667 ft 334 kts 107°
2026-04-26 19:37 52.03096 20.51912 11382 ft 326 kts 107°
2026-04-26 19:38 52.02259 20.55333 11069 ft 317 kts 107°
2026-04-26 19:38 52.01458 20.58601 10805 ft 314 kts 107°
2026-04-26 19:38 52.00655 20.61883 10522 ft 310 kts 107°
2026-04-26 19:38 51.99867 20.65087 10313 ft 298 kts 107°
2026-04-26 19:39 51.99115 20.68141 10120 ft 287 kts 107°
2026-04-26 19:39 51.98382 20.71116 9861 ft 278 kts 107°
2026-04-26 19:39 51.97674 20.73986 9605 ft 271 kts 107°
2026-04-26 19:39 51.96981 20.76798 9368 ft 267 kts 107°
2026-04-26 19:40 51.96294 20.79587 9127 ft 265 kts 108°
2026-04-26 19:40 51.95610 20.82354 8887 ft 264 kts 108°
2026-04-26 19:40 51.94862 20.85072 8632 ft 267 kts 122°
2026-04-26 19:40 51.93454 20.87020 8443 ft 270 kts 155°
2026-04-26 19:41 51.91725 20.88277 8233 ft 274 kts 156°
2026-04-26 19:41 51.90012 20.89512 8063 ft 271 kts 156°
2026-04-26 19:41 51.88303 20.90742 7903 ft 266 kts 156°
2026-04-26 19:41 51.87732 20.91152 7863 ft 265 kts 156°
2026-04-26 19:42 51.85016 20.93250 7645 ft 254 kts 140°
2026-04-26 19:42 51.84064 20.95486 7571 ft 239 kts 99°
2026-04-26 19:42 51.83915 20.98124 7447 ft 237 kts 86°
2026-04-26 19:42 51.83861 21.00823 7151 ft 243 kts 87°
2026-04-26 19:43 51.83814 21.03565 6772 ft 246 kts 86°
2026-04-26 19:43 51.83762 21.06340 6496 ft 241 kts 86°
2026-04-26 19:43 51.83700 21.08952 6328 ft 229 kts 86°
2026-04-26 19:43 51.83748 21.11397 6170 ft 206 kts 65°
2026-04-26 19:44 51.84314 21.13345 6193 ft 188 kts 56°
2026-04-26 19:44 51.85031 21.15062 6145 ft 179 kts 27°
2026-04-26 19:44 51.86162 21.15407 6130 ft 167 kts 342°
2026-04-26 19:44 51.87264 21.14719 5805 ft 170 kts 337°
2026-04-26 19:45 51.88362 21.14066 5470 ft 168 kts 349°
2026-04-26 19:45 51.89522 21.14318 5221 ft 169 kts
2026-04-26 19:45 51.90670 21.14746 4977 ft 169 kts
2026-04-26 19:45 51.91817 21.15153 4742 ft 169 kts
2026-04-26 19:46 51.92971 21.15553 4503 ft 170 kts
2026-04-26 19:46 51.94121 21.15840 4324 ft 163 kts 352°
2026-04-26 19:46 51.95152 21.15243 4205 ft 156 kts 335°
2026-04-26 19:46 51.96150 21.14505 4136 ft 159 kts 334°
2026-04-26 19:47 51.97151 21.13703 4139 ft 161 kts 333°
2026-04-26 19:47 51.97473 21.13434 4128 ft 158 kts 333°
2026-04-26 19:47 51.99002 21.12123 4115 ft 144 kts 332°
2026-04-26 19:47 51.99882 21.11355 3967 ft 140 kts 332°
2026-04-26 19:48 52.00689 21.10647 3789 ft 122 kts 332°
2026-04-26 19:48 52.01424 21.10003 3602 ft 114 kts 333°
2026-04-26 19:48 52.02079 21.09427 3442 ft 100 kts 333°
2026-04-26 19:48 52.02682 21.08899 3338 ft 104 kts 333°
2026-04-26 19:49 52.03377 21.08290 3179 ft 113 kts 334°
2026-04-26 19:49 52.04047 21.07700 3016 ft 108 kts 334°
2026-04-26 19:49 52.04481 21.07320 2921 ft 106 kts 334°
2026-04-26 19:49 52.05135 21.06746 2782 ft 108 kts 335°
2026-04-26 19:50 52.05824 21.06142 2626 ft 119 kts 334°
2026-04-26 19:50 52.06541 21.05513 2459 ft 119 kts 334°
2026-04-26 19:50 52.07287 21.04858 2281 ft 125 kts 335°
2026-04-26 19:50 52.08050 21.04188 2099 ft 127 kts 335°
2026-04-26 19:51 52.08822 21.03510 1924 ft 126 kts 335°
2026-04-26 19:51 52.09597 21.02830 1748 ft 128 kts 335°
2026-04-26 19:51 52.10380 21.02143 1578 ft 126 kts 335°
2026-04-26 19:51 52.11138 21.01477 1397 ft 123 kts 335°
2026-04-26 19:52 52.11900 21.00808 1225 ft 126 kts 333°
2026-04-26 19:52 52.12678 21.00112 1034 ft 129 kts 333°
2026-04-26 19:52 52.13473 20.99428 854 ft 129 kts 333°
2026-04-26 19:52 52.14269 20.98730 653 ft 129 kts 332°
2026-04-26 19:53 52.15058 20.98043 478 ft 129 kts 333°
2026-04-26 19:53 52.15843 20.97356 351 ft 125 kts 332°
2026-04-26 19:53 52.16505 20.96772 338 ft 88 kts 332°
2026-04-26 19:53 52.16865 20.96456 334 ft 41 kts 332°
2026-04-26 19:54 52.17021 20.96381 336 ft 11 kts 36°
2026-04-26 19:54 52.17047 20.96437 334 ft 0 kts 60°
2026-04-26 19:54 52.17062 20.96484 334 ft 2 kts 62°
2026-04-26 19:55 52.17069 20.96507 335 ft 3 kts 62°
2026-04-26 19:55 52.17096 20.96610 334 ft 14 kts 91°
2026-04-26 19:55 52.17031 20.96711 334 ft 13 kts 152°
2026-04-26 19:55 52.16950 20.96781 336 ft 16 kts 152°
2026-04-26 19:56 52.16819 20.96896 336 ft 17 kts 152°
2026-04-26 19:56 52.16739 20.96965 336 ft 16 kts 152°
2026-04-26 19:56 52.16696 20.97113 335 ft 16 kts 67°
2026-04-26 19:56 52.16792 20.97157 338 ft 10 kts 313°
2026-04-26 19:57 52.16792 20.97074 337 ft 8 kts 263°
2026-04-26 19:57 52.16794 20.97027 338 ft 0 kts 275°
2026-04-26 19:57 52.16794 20.97023 334 ft 0 kts 275°